Flag for Germany Weather past 2 weeks in Baden-Baden, Baden-Württemberg, Germany

54 °F

Broken clouds.

Feels Like: 50 °F
Forecast: 42 / 57 °F
Wind: 13 mph from Northeast

Location: Karlsruhe - Baden Wurttemberg

Current Time: Oct 10, 2015 at 11:12:07 AM

Latest Report: Oct 10, 2015 at 10:20 AM

Visibility: N/A

Pressure: 30.04 "Hg

Humidity: 88%

Dew point: 50 °F

Location of Baden-BadenLocation

Historic Weather in Baden-Baden — Graph


Baden-Baden temperature yesterday

Maximum temperature yesterday: 61 °F (at 1:20 PM)
Minimum temperature yesterday: 52 °F (at 4:20 AM)
Average temperature yesterday: 55 °F

Past Weeks' High & Low Weather Summary

High72 °F (Oct 3, 3:50 PM)94% (Oct 3, 11:20 PM)30.51 "Hg (Oct 3, 11:20 PM)
Low43 °F (Oct 1, 6:50 AM)28% (Sep 28, 5:20 PM)29.68 "Hg (Oct 6, 8:50 AM)
Average57 °F67%30.16 "Hg
* Reported Sep 25 9:20 AM — Oct 10 9:50 AM, Baden-Baden, Weather by CustomWeather, © 2015

Note: Actual official high and low records may vary slightly from our data, if they occured in-between our weather recording intervals... More about our weather records


Baden-Baden weather history for previous 24 hours

Time TempWeatherWind HumidityBarometerVisibility
9:50 AM
Sat, Oct 10
54 °FPartly sunny.13 mph88%30.04 "Hg5 mi
9:20 AM52 °FBroken clouds.12 mph94%30.04 "Hg6 mi
8:50 AM52 °FPartly sunny.12 mph94%30.04 "Hg5 mi
8:20 AM52 °FPassing clouds.9 mph88%30.04 "Hg5 mi
7:50 AM50 °FFog.10 mph94%30.04 "Hg3 mi
7:20 AM50 °FFog.7 mph94%30.04 "Hg3 mi
6:50 AM50 °FPassing clouds.10 mph94%30.04 "Hg2 mi
6:20 AM50 °FFog.8 mph94%30.04 "Hg2 mi
5:50 AM52 °FPassing clouds.8 mph88%30.04 "Hg6 mi
5:20 AM50 °FPassing clouds.9 mph94%30.04 "Hg6 mi
4:50 AM50 °FPassing clouds.10 mph94%30.04 "Hg6 mi
12:20 AM54 °FClear.9 mph82%30.07 "Hg10 mi
11:50 PM
Fri, Oct 9
52 °FClear.7 mph88%30.07 "Hg10 mi
10:50 PM54 °FClear.7 mph82%30.09 "Hg10 mi
10:20 PM55 °FClear.10 mph77%30.09 "Hg10 mi
9:50 PM55 °FClear.7 mph77%30.09 "Hg10 mi
9:20 PM55 °FClear.6 mph77%30.09 "Hg10 mi
8:50 PM54 °FClear.6 mph77%30.09 "Hg10 mi
8:20 PM55 °FClear.6 mph72%30.09 "Hg10 mi
7:50 PM55 °FClear.7 mph77%30.09 "Hg10 mi
7:20 PM55 °FSunny.7 mph77%30.09 "Hg10 mi
6:50 PM57 °FSunny.8 mph72%30.09 "Hg10 mi
6:20 PM59 °FSunny.7 mph68%30.09 "Hg10 mi
5:50 PM59 °FPassing clouds.6 mph68%30.09 "HgN/A
5:20 PM59 °FSunny.8 mph68%30.09 "Hg10 mi
4:20 PM61 °FPassing clouds.8 mph63%30.09 "HgN/A
3:50 PM61 °FPassing clouds.10 mph63%30.09 "HgN/A
3:20 PM61 °FPassing clouds.10 mph68%30.09 "HgN/A
2:50 PM61 °FSunny.8 mph63%30.09 "Hg10 mi
2:20 PM61 °FSunny.9 mph63%30.09 "Hg10 mi
1:50 PM61 °FPassing clouds.10 mph68%30.09 "HgN/A
1:20 PM61 °FPassing clouds.8 mph68%30.12 "HgN/A
12:50 PM59 °FScattered clouds.10 mph72%30.12 "HgN/A
12:20 PM57 °FScattered clouds.8 mph77%30.12 "HgN/A
11:50 AM55 °FBroken clouds.8 mph82%30.12 "HgN/A
11:20 AM55 °FBroken clouds.9 mph82%30.12 "HgN/A
Weather by CustomWeather, © 2015

See weather overviewHow to use our weather pages